Location: Boussy-Saint-Antoine
(48.6830°N, 2.5330°E)
Time: 13:32:04
(UTC+02:00)

Envisat - Visible Passes

Search period start: 15 October 2019 00:00
Search period end: 25 October 2019 00:00
Orbit: 764 x 766 km, 98.1° (Epoch: 15 October)

Date Brightness Start Highest point End Pass type
(mag) Time Alt. Az. Time Alt. Az. Time Alt. Az.
15 Oct 5.4 20:58:31 10° SW 21:02:32 23° W 21:06:34 10° NW visible
16 Oct 6.4 07:24:46 10° NE 07:27:20 14° E 07:29:53 10° ESE visible
16 Oct 4.1 20:20:36 10° S 20:25:29 47° W 20:30:24 10° NNW visible
17 Oct 3.0 19:43:33 10° SSE 19:48:38 86° ENE 19:53:45 10° NNW visible
17 Oct 6.0 21:25:43 10° WSW 21:28:22 14° W 21:31:01 10° NW visible
18 Oct 5.1 20:46:49 10° SSW 20:51:10 28° W 20:55:33 10° NW visible
19 Oct 6.7 07:14:37 10° ENE 07:15:53 11° E 07:17:10 10° E visible
19 Oct 3.7 20:09:11 10° S 20:14:11 58° W 20:19:13 10° NNW visible
20 Oct 3.0 19:32:20 10° SSE 19:37:23 71° ENE 19:42:28 10° N visible
20 Oct 5.8 21:13:36 10° SW 21:16:57 17° W 21:20:19 10° NW visible
21 Oct 6.1 07:38:14 10° NE 07:41:46 19° E 07:45:17 10° SE visible
21 Oct 4.7 20:35:12 10° SSW 20:39:49 35° W 20:44:28 10° NNW visible
22 Oct 3.3 19:57:49 10° S 20:02:53 72° WSW 20:07:59 10° NNW visible
22 Oct 6.4 21:42:33 10° W 21:42:50 10° W 21:43:07 10° W visible
23 Oct 3.1 19:21:11 10° SSE 19:26:09 58° ENE 19:31:09 10° N visible
23 Oct 5.5 21:01:42 10° SW 21:05:33 22° W 21:09:26 10° NW visible
24 Oct 6.2 07:27:29 10° NE 07:30:22 15° E 07:33:14 10° ESE visible
24 Oct 4.3 20:23:40 10° S 20:28:29 43° W 20:33:20 10° NNW visible
